This demonstration page uses our WeatherBlox Daily Observations layout. Learn more.

Left ArrowRight Arrow

34.16533, -84.80231

Hourly Observations for October 17, 2020

Temp ( °F °C ) Dew Point ( °F °C ) Humidity (%) Winds ( mph kmh ) Pressure ( in mb ) Visibility ( mi km ) Precip ( " mm )
12:53 am 00:53 Clear 45 7.2 39 3.9 80 80 Calm 30.27 1025 10 16 0.00 0.00
1:53 am 01:53 Clear 44 6.7 39 3.9 83 83 Calm 30.25 1025 10 16 0.00 0.00
2:53 am 02:53 Clear 43 6.1 38 3.3 82 82 NW 3 6 30.27 1025 10 16 0.00 0.00
3:53 am 03:53 Clear 44 6.7 36 2.2 73 73 Calm 30.25 1024 10 16 0.00 0.00
4:53 am 04:53 Clear 41 5 36 2.2 82 82 SSE 3 6 30.27 1025 10 16 0.00 0.00
5:53 am 05:53 Clear 39 3.9 36 2.2 89 89 Calm 30.31 1026 10 16 0.00 0.00
6:53 am 06:53 Clear 39 3.9 36 2.2 89 89 S 3 6 30.30 1026 10 16 0.00 0.00
7:53 am 07:53 Sunny 38 3.3 35 1.7 89 89 Calm 30.31 1026 10 16 0.00 0.00
8:53 am 08:53 Sunny 44 6.7 39 3.9 83 83 Calm 30.33 1027 10 16 0.00 0.00
9:53 am 09:53 Sunny 51 10.6 39 3.9 64 64 Calm 30.33 1027 10 16 0.00 0.00
10:53 am 10:53 Sunny 56 13.3 40 4.4 55 55 NNE 5 7 30.34 1027 10 16 0.00 0.00
11:53 am 11:53 Sunny 61 16.1 37 2.8 41 41 VRB 5 7 30.33 1027 10 16 0.00 0.00
12:53 pm 12:53 Sunny 64 17.8 39 3.9 40 40 SE 10 17 30.31 1027 10 16 0.00 0.00
1:53 pm 13:53 Sunny 66 18.9 39 3.9 37 37 E 9 15 30.29 1026 10 16 0.00 0.00
2:53 pm 14:53 Sunny 66 18.9 39 3.9 37 37 SE 7 11 30.26 1025 10 16 0.00 0.00
3:53 pm 15:53 Sunny 67 19.4 40 4.4 37 37 SE 7 11 30.24 1024 10 16 0.00 0.00
4:53 pm 16:53 Sunny 67 19.4 41 5 39 39 SSE 8 13 30.23 1024 10 16 0.00 0.00
5:53 pm 17:53 Sunny 65 18.3 41 5 42 42 SSE 8 13 30.23 1024 10 16 0.00 0.00
6:53 pm 18:53 Sunny 57 13.9 47 8.3 69 69 Calm 30.23 1024 10 16 0.00 0.00
7:53 pm 19:53 Clear 51 10.6 47 8.3 86 86 SSE 3 6 30.24 1024 10 16 0.00 0.00
8:53 pm 20:53 Clear 51 10.6 45 7.2 80 80 SE 3 6 30.26 1025 10 16 0.00 0.00
9:53 pm 21:53 Clear 53 11.7 43 6.1 69 69 Calm 30.25 1025 10 16 0.00 0.00
10:53 pm 22:53 Clear 55 12.8 41 5 59 59 ESE 6 9 30.25 1024 10 16 0.00 0.00
11:53 pm 23:53 Clear 54 12.2 41 5 62 62 VRB 3 6 30.26 1025 10 16 0.00 0.00

Powered by AerisWeather